Location: *
(48.7358°N, 0.3111°E)
Time: 11:29:07
(UTC+00:00)

IDEFIX/ARIANE 42P - Pass Details

Date: 22 October 2019
Orbit: 785 x 803 km, 98.3° (Epoch: 11 November)

Event Time Altitude Azimuth Distance (km) Brightness Sun altitude
Rises 03:03:56 0° 21° (NNE) 3,314 6.4 -33.9°
Reaches altitude 10° 03:06:29 10° 30° (NNE) 2,377 5.6 -33.5°
Maximum altitude 03:11:16 35° 96° (E) 1,267 3.9 -32.8°
Enters shadow 03:12:29 31° 123° (ESE) 1,362 4.0 -32.6°
